Home > Weather > Strasbourg > Past weeks

Flag for France Past Weather in Strasbourg, Alsace, France — Yesterday and Last 2 Weeks

Now
73 °F

Sunny.


Feels Like: 75 °F
Forecast: 62 / 80 °F
Wind: 5 mph from Northwest

Location: Strasbourg Airport

Current Time: Jul 25, 2016 at 10:07:51 PM

Latest Report: Jul 25, 2016 at 9:30 PM


Visibility: 10 mi

Pressure: 30.09 "Hg

Humidity: 74%

Dew Point: 64 °F

Location of StrasbourgLocation

Past Weather in Strasbourg — Graph

°F

Strasbourg Temperature Yesterday

Maximum temperature yesterday: 79 °F (at 3:00 PM)
Minimum temperature yesterday: 66 °F (at 1:30 AM)
Average temperature yesterday: 72 °F

High & Low Weather Summary for the Past Weeks

 TemperatureHumidityPressure
High95 °F (Jul 20, 5:30 PM)100% (Jul 15, 5:00 AM)30.33 "Hg (Jul 15, 5:00 AM)
Low50 °F (Jul 16, 3:30 AM)31% (Jul 10, 8:00 PM)29.83 "Hg (Jul 10, 8:00 PM)
Average70 °F71%30.08 "Hg
* Reported Jul 10 8:00 PM — Jul 25 8:30 PM, Strasbourg, Weather by CustomWeather, © 2016

Note: Actual official high and low records may vary slightly from our data, if they occured in-between our weather recording intervals... More about our weather records

Advertising

Strasbourg Weather History for the Previous 24 Hours

Scroll right to see more
 ConditionsComfort  
Time TempWeatherWind HumidityBarometerVisibility
8:30 PM
Mon, Jul 25
81 °FSunny.5 mph51%30.09 "Hg10 mi
8:00 PM81 °FSunny.5 mph48%30.09 "Hg10 mi
7:30 PM82 °FPassing clouds.6 mph48%30.07 "HgN/A
7:00 PM82 °FSunny.8 mph48%30.07 "Hg10 mi
6:30 PM82 °FSunny.10 mph45%30.07 "Hg10 mi
6:00 PM82 °FPassing clouds.12 mph45%30.07 "HgN/A
5:30 PM84 °FPassing clouds.9 mph48%30.07 "HgN/A
5:00 PM82 °FPassing clouds.9 mph48%30.07 "HgN/A
4:30 PM84 °FPassing clouds.8 mph45%30.07 "HgN/A
4:00 PM82 °FPassing clouds.10 mph45%30.09 "HgN/A
3:30 PM82 °FPassing clouds.9 mph48%30.09 "HgN/A
3:00 PM82 °FPassing clouds.8 mph51%30.09 "HgN/A
2:30 PM82 °FPartly sunny.7 mph48%30.09 "HgN/A
2:00 PM82 °FPassing clouds.5 mph51%30.09 "HgN/A
1:30 PM81 °FPassing clouds.7 mph51%30.09 "HgN/A
1:00 PM81 °FPassing clouds.7 mph51%30.09 "HgN/A
12:30 PM79 °FPassing clouds.7 mph58%30.09 "HgN/A
12:00 PM79 °FPassing clouds.9 mph58%30.09 "HgN/A
11:30 AM79 °FPassing clouds.8 mph58%30.12 "HgN/A
11:00 AM79 °FPassing clouds.9 mph58%30.12 "HgN/A
10:30 AM77 °FPassing clouds.8 mph65%30.12 "HgN/A
10:00 AM77 °FPassing clouds.5 mph65%30.12 "HgN/A
9:30 AM75 °FSunny.2 mph74%30.12 "Hg10 mi
9:00 AM73 °FSunny.2 mph78%30.12 "Hg10 mi
8:30 AM70 °FSunny.2 mph83%30.12 "Hg10 mi
8:00 AM68 °FPartly sunny.3 mph88%30.09 "HgN/A
7:30 AM66 °FMostly cloudy.2 mph94%30.09 "HgN/A
7:00 AM66 °FPartly sunny.2 mph94%30.09 "Hg5 mi
6:30 AM64 °FPassing clouds.2 mph100%30.09 "Hg5 mi
6:00 AM64 °FPassing clouds.1 mph100%30.09 "Hg4 mi
5:30 AM66 °FPassing clouds.No wind94%30.09 "Hg4 mi
5:00 AM66 °FClear.1 mph94%30.09 "Hg6 mi
4:30 AM66 °FClear.3 mph94%30.09 "Hg10 mi
4:00 AM68 °FPassing clouds.5 mph88%30.09 "HgN/A
3:30 AM68 °FMostly cloudy.3 mph88%30.09 "HgN/A
3:00 AM68 °FMostly cloudy.6 mph94%30.09 "HgN/A
2:30 AM68 °FPartly cloudy.5 mph94%30.09 "HgN/A
2:00 AM68 °FLight rain. Overcast.5 mph94%30.09 "HgN/A
1:30 AM70 °FLight rain. Mostly cloudy.3 mph88%30.09 "HgN/A
1:00 AM68 °FMostly cloudy.3 mph88%30.09 "HgN/A
12:30 AM68 °FPartly cloudy.3 mph88%30.09 "HgN/A
12:00 AM68 °FPassing clouds.5 mph88%30.09 "HgN/A
11:30 PM
Sun, Jul 24
68 °FPassing clouds.6 mph88%30.09 "HgN/A
11:00 PM70 °FClear.5 mph83%30.09 "Hg10 mi
10:30 PM70 °FClear.5 mph83%30.09 "Hg10 mi
10:00 PM70 °FClear.5 mph88%30.09 "Hg5 mi
Weather by CustomWeather, © 2016

See weather overviewHow to use our weather pages